TimeCDT,TemperatureF,Dew PointF,Humidity,Sea Level PressureIn,VisibilityMPH,Wind Direction,Wind SpeedMPH,Gust SpeedMPH,PrecipitationIn,Events,Conditions,WindDirDegrees,DateUTC
12:15 AM,46.9,46.9,100,30.10,0.2,Calm,Calm,-,N/A,Fog,Fog,0,2013-08-10 05:15:00
12:35 AM,46.4,46.4,100,30.10,10.0,Calm,Calm,-,N/A,,Scattered Clouds,0,2013-08-10 05:35:00
12:55 AM,46.2,46.2,100,30.10,0.5,Calm,Calm,-,N/A,Fog,Fog,0,2013-08-10 05:55:00
1:15 AM,45.5,45.5,100,30.11,0.5,Calm,Calm,-,N/A,Fog,Fog,0,2013-08-10 06:15:00
1:35 AM,45.5,45.5,100,30.11,0.5,Calm,Calm,-,N/A,Fog,Fog,0,2013-08-10 06:35:00
1:55 AM,45.1,45.1,100,30.11,3.0,Calm,Calm,-,N/A,,Scattered Clouds,0,2013-08-10 06:55:00
2:15 AM,45.7,45.7,100,30.11,2.5,Calm,Calm,-,N/A,,Mostly Cloudy,0,2013-08-10 07:15:00
2:35 AM,43.5,43.5,100,30.12,0.2,Calm,Calm,-,N/A,Fog,Fog,0,2013-08-10 07:35:00
2:55 AM,43.2,43.2,100,30.12,0.2,Calm,Calm,-,N/A,Fog,Fog,0,2013-08-10 07:55:00
3:15 AM,44.6,44.6,100,30.12,0.5,Calm,Calm,-,N/A,Fog,Fog,0,2013-08-10 08:15:00
3:35 AM,43.5,43.5,100,30.13,1.0,Calm,Calm,-,N/A,,Overcast,0,2013-08-10 08:35:00
3:55 AM,43.5,43.5,100,30.13,0.5,Calm,Calm,-,N/A,Fog,Fog,0,2013-08-10 08:55:00
4:15 AM,43.2,43.2,100,30.13,1.5,Calm,Calm,-,N/A,,Mostly Cloudy,0,2013-08-10 09:15:00
4:35 AM,43.5,43.5,100,30.14,0.8,Calm,Calm,-,N/A,,Mostly Cloudy,0,2013-08-10 09:35:00
4:55 AM,42.4,42.4,100,30.14,1.8,Calm,Calm,-,N/A,,Mostly Cloudy,0,2013-08-10 09:55:00
5:15 AM,42.8,42.8,100,30.15,1.0,Calm,Calm,-,N/A,,Overcast,0,2013-08-10 10:15:00
5:35 AM,42.8,42.8,100,30.14,2.0,Calm,Calm,-,N/A,,Overcast,0,2013-08-10 10:35:00
5:55 AM,42.8,42.8,100,30.15,10.0,Calm,Calm,-,N/A,,Mostly Cloudy,0,2013-08-10 10:55:00
6:15 AM,41.9,41.9,100,30.15,0.2,Calm,Calm,-,N/A,Fog,Fog,0,2013-08-10 11:15:00
6:35 AM,43.0,43.0,100,30.15,0.8,Calm,Calm,-,N/A,,Overcast,0,2013-08-10 11:35:00
6:55 AM,46.0,46.0,100,30.15,5.0,Calm,Calm,-,N/A,,Overcast,0,2013-08-10 11:55:00
7:15 AM,47.7,47.7,100,30.16,10.0,Calm,Calm,-,N/A,,Overcast,0,2013-08-10 12:15:00
7:35 AM,50.4,50.4,100,30.16,10.0,Calm,Calm,-,N/A,,Overcast,0,2013-08-10 12:35:00
7:55 AM,52.7,52.7,100,30.16,10.0,Calm,Calm,-,N/A,,Overcast,0,2013-08-10 12:55:00
8:15 AM,53.6,53.6,100,30.17,10.0,Calm,Calm,-,N/A,,Overcast,0,2013-08-10 13:15:00
8:35 AM,55.6,55.6,100,30.16,10.0,Calm,Calm,-,N/A,,Overcast,0,2013-08-10 13:35:00
8:55 AM,57.6,56.5,96,30.16,10.0,Calm,Calm,-,N/A,,Overcast,0,2013-08-10 13:55:00
9:15 AM,61.2,51.4,70,30.15,10.0,North,3.5,-,N/A,,Scattered Clouds,350,2013-08-10 14:15:00
9:35 AM,62.8,48.6,60,30.16,10.0,North,3.5,-,N/A,,Clear,350,2013-08-10 14:35:00
9:55 AM,63.7,48.6,58,30.16,10.0,NW,4.6,-,N/A,,Clear,310,2013-08-10 14:55:00
10:15 AM,64.4,48.0,55,30.16,10.0,Calm,Calm,-,N/A,,Clear,0,2013-08-10 15:15:00
10:35 AM,65.5,48.9,55,30.16,10.0,West,4.6,-,N/A,,Scattered Clouds,280,2013-08-10 15:35:00
10:55 AM,66.0,48.0,52,30.16,10.0,NNE,3.5,-,N/A,,Scattered Clouds,20,2013-08-10 15:55:00
11:15 AM,66.9,48.7,52,30.16,10.0,West,4.6,-,N/A,,Mostly Cloudy,260,2013-08-10 16:15:00
11:35 AM,67.3,48.0,50,30.16,10.0,WNW,6.9,-,N/A,,Overcast,290,2013-08-10 16:35:00
11:55 AM,66.2,48.2,52,30.16,10.0,WNW,5.8,-,N/A,,Overcast,290,2013-08-10 16:55:00
12:15 PM,67.1,48.4,51,30.16,10.0,North,4.6,-,N/A,,Overcast,350,2013-08-10 17:15:00
12:35 PM,66.9,46.8,48,30.16,10.0,North,6.9,-,N/A,,Overcast,360,2013-08-10 17:35:00
12:55 PM,65.1,48.6,55,30.16,10.0,NW,4.6,-,N/A,,Overcast,320,2013-08-10 17:55:00
1:15 PM,65.7,49.1,55,30.16,10.0,WNW,4.6,-,N/A,,Overcast,290,2013-08-10 18:15:00
1:35 PM,66.9,47.7,50,30.16,10.0,NNW,4.6,-,N/A,,Overcast,330,2013-08-10 18:35:00
1:55 PM,67.1,48.9,52,30.16,10.0,West,4.6,-,N/A,,Overcast,280,2013-08-10 18:55:00
2:15 PM,68.0,47.1,47,30.16,10.0,NW,5.8,-,N/A,,Overcast,310,2013-08-10 19:15:00
2:35 PM,67.8,47.7,48,30.16,10.0,West,8.1,-,N/A,,Overcast,260,2013-08-10 19:35:00
2:55 PM,66.7,47.8,51,30.16,10.0,West,10.4,-,N/A,,Overcast,260,2013-08-10 19:55:00
3:15 PM,67.3,49.6,53,30.16,10.0,West,6.9,-,N/A,,Overcast,260,2013-08-10 20:15:00
3:35 PM,67.8,49.3,51,30.15,10.0,West,6.9,-,N/A,,Overcast,280,2013-08-10 20:35:00
3:55 PM,68.5,49.1,50,30.15,10.0,West,5.8,-,N/A,,Overcast,280,2013-08-10 20:55:00
4:15 PM,68.5,48.4,49,30.15,10.0,West,6.9,-,N/A,,Overcast,270,2013-08-10 21:15:00
4:35 PM,69.6,47.3,45,30.14,10.0,West,6.9,-,N/A,,Overcast,280,2013-08-10 21:35:00
4:55 PM,67.6,47.8,49,30.13,10.0,West,4.6,-,N/A,,Mostly Cloudy,260,2013-08-10 21:55:00
5:15 PM,69.3,49.1,49,30.13,10.0,West,6.9,-,N/A,,Mostly Cloudy,260,2013-08-10 22:15:00
5:35 PM,69.3,50.0,50,30.13,10.0,WSW,8.1,-,N/A,,Mostly Cloudy,250,2013-08-10 22:35:00
5:55 PM,68.2,49.5,51,30.13,10.0,WSW,8.1,-,N/A,,Scattered Clouds,250,2013-08-10 22:55:00
6:15 PM,68.0,49.1,51,30.12,10.0,WSW,8.1,-,N/A,,Clear,250,2013-08-10 23:15:00
6:35 PM,67.3,49.1,52,30.13,10.0,West,5.8,-,N/A,,Scattered Clouds,270,2013-08-10 23:35:00
6:55 PM,67.3,49.8,53,30.12,10.0,Calm,Calm,-,N/A,,Mostly Cloudy,0,2013-08-10 23:55:00
7:15 PM,67.1,50.2,55,30.12,10.0,West,4.6,-,N/A,,Overcast,270,2013-08-11 00:15:00
7:35 PM,65.7,49.8,57,30.12,10.0,WNW,4.6,-,N/A,,Mostly Cloudy,300,2013-08-11 00:35:00
7:55 PM,63.7,50.5,62,30.12,10.0,WNW,3.5,-,N/A,,Scattered Clouds,290,2013-08-11 00:55:00
8:15 PM,60.1,52.2,75,30.12,10.0,Calm,Calm,-,N/A,,Clear,0,2013-08-11 01:15:00
8:35 PM,58.3,52.3,81,30.12,10.0,Calm,Calm,-,N/A,,Scattered Clouds,0,2013-08-11 01:35:00
8:55 PM,56.5,52.2,85,30.12,10.0,Calm,Calm,-,N/A,,Clear,0,2013-08-11 01:55:00
9:15 PM,55.0,54.0,96,30.13,10.0,Calm,Calm,-,N/A,,Scattered Clouds,0,2013-08-11 02:15:00
9:35 PM,54.3,54.0,99,30.12,10.0,Calm,Calm,-,N/A,,Scattered Clouds,0,2013-08-11 02:35:00
9:55 PM,54.0,54.0,100,30.12,10.0,Calm,Calm,-,N/A,,Clear,0,2013-08-11 02:55:00
10:15 PM,51.4,51.4,100,30.12,5.0,Calm,Calm,-,N/A,,Clear,0,2013-08-11 03:15:00
10:35 PM,52.5,52.5,100,30.12,0.2,Calm,Calm,-,N/A,Fog,Fog,0,2013-08-11 03:35:00
10:55 PM,50.7,50.7,100,30.12,0.5,Calm,Calm,-,N/A,Fog,Fog,0,2013-08-11 03:55:00
11:15 PM,49.5,49.5,100,30.12,0.2,Calm,Calm,-,N/A,Fog,Fog,0,2013-08-11 04:15:00
11:35 PM,49.8,49.8,100,30.13,0.2,Calm,Calm,-,N/A,Fog,Fog,0,2013-08-11 04:35:00
11:55 PM,49.6,49.6,100,30.12,0.2,Calm,Calm,-,N/A,Fog,Fog,0,2013-08-11 04:55:00